K0VXP-1 Weather Reports


Display with metric or nautical units.
time (UTC)temp
F
wind
direction
speed
MPH
gust
MPH
rain 1hr
in
rain 24hr
in
rain mn
in
humidity
%
barometer
mb
20260510090030 41 51 2.0 6.0 0.00 0.00 0.00 52 1024.7
20260510084533 41 65 5.0 9.0 0.00 0.00 0.00 54 1024.7
20260510083029 42 30 6.0 10.0 0.00 0.00 0.00 52 1024.5
20260510081538 45 15 6.0 13.0 0.00 0.00 0.00 50 1024.5
20260510080031 44 18 7.0 12.0 0.00 0.00 0.00 51 1024.4
20260510074532 42 347 5.0 11.0 0.00 0.00 0.00 54 1024.4
20260510073034 44 5 6.0 11.0 0.00 0.00 0.00 52 1024.4
20260510071532 44 30 8.0 14.0 0.00 0.00 0.00 51 1024.3
20260510070031 45 20 7.0 13.0 0.00 0.00 0.00 50 1024.2
20260510064532 46 19 10.0 18.0 0.00 0.00 0.00 48 1023.9
20260510063038 47 360 11.0 20.0 0.00 0.00 0.00 46 1023.7
20260510061529 48 24 13.0 24.0 0.00 0.00 0.00 45 1023.5
20260510060032 49 30 12.0 22.0 0.00 0.00 0.00 41 1023.2
20260510054532 50 15 15.0 22.0 0.00 0.00 0.00 35 1023.0
20260510053029 50 5 12.0 19.0 0.00 0.00 0.00 34 1022.7
20260510051532 51 24 13.0 20.0 0.00 0.00 0.00 33 1022.4
20260510050030 51 5 12.0 18.0 0.00 0.00 0.00 33 1022.2
20260510044544 50 28 11.0 18.0 0.00 0.00 0.00 32 1022.1
20260510043035 48 26 8.0 13.0 0.00 0.00 0.00 33 1022.0
20260510041531 47 80 5.0 10.0 0.00 0.00 0.00 30 1021.9
20260510040031 47 65 6.0 12.0 0.00 0.00 0.00 30 1021.5
20260510034534 47 84 8.0 12.0 0.00 0.00 0.00 31 1021.0
20260510033031 48 66 7.0 10.0 0.00 0.00 0.00 31 1020.8
20260510031534 49 72 7.0 9.0 0.00 0.00 0.00 29 1020.6
20260510030031 53 66 4.0 8.0 0.00 0.00 0.00 24 1020.4
20260510024531 55 0 0.0 2.0 0.00 0.00 0.00 19 1020.2
20260510023029 56 262 2.0 6.0 0.00 0.00 0.00 20 1020.0
20260510021537 57 284 3.0 7.0 0.00 0.00 0.00 19 1019.9
20260510020033 59 265 3.0 8.0 0.00 0.00 0.00 20 1019.8
20260510014533 60 281 5.0 9.0 0.00 0.00 0.00 22 1019.8
20260510013031 60 300 5.0 12.0 0.00 0.00 0.00 22 1019.7
20260510011530 61 254 5.0 16.0 0.00 0.00 0.00 22 1019.6
20260510010028 62 267 4.0 15.0 0.00 0.00 0.00 23 1019.4
20260510004527 62 292 8.0 14.0 0.00 0.00 0.00 22 1019.3
20260510003032 63 275 9.0 13.0 0.00 0.00 0.00 23 1019.3
20260510001529 63 253 8.0 13.0 0.00 0.00 0.00 23 1019.3
20260510000029 64 245 10.0 16.0 0.00 0.00 0.00 24 1019.2
20260509234535 64 229 6.0 12.0 0.00 0.00 0.00 25 1019.1
20260509233028 65 258 7.0 16.0 0.00 0.00 0.00 24 1019.3
20260509231528 65 228 7.0 17.0 0.00 0.00 0.00 26 1019.4
20260509230030 64 256 9.0 15.0 0.00 0.00 0.00 25 1019.3
20260509224535 64 254 8.0 24.0 0.00 0.00 0.00 26 1019.4
20260509223031 64 261 3.0 12.0 0.00 0.00 0.00 26 1019.5
20260509221532 64 237 9.0 17.0 0.00 0.00 0.00 25 1019.4
20260509220031 65 252 7.0 14.0 0.00 0.00 0.00 25 1019.6
20260509214531 65 273 14.0 20.0 0.00 0.00 0.00 25 1019.8
20260509213030 66 219 9.0 18.0 0.00 0.00 0.00 26 1019.9
20260509211530 66 308 12.0 18.0 0.00 0.00 0.00 22 1019.9
20260509210033 67 312 5.0 15.0 0.00 0.00 0.00 25 1020.0
20260509204529 65 262 7.0 22.0 0.00 0.00 0.00 26 1020.1
20260509203032 66 331 6.0 24.0 0.00 0.00 0.00 23 1020.3
20260509201529 67 227 16.0 26.0 0.00 0.00 0.00 22 1020.4
20260509200030 66 246 10.0 25.0 0.00 0.00 0.00 24 1020.4
20260509194530 66 290 15.0 24.0 0.00 0.00 0.00 26 1020.4
20260509193032 67 317 10.0 18.0 0.00 0.00 0.00 29 1020.5
20260509191532 67 192 6.0 20.0 0.00 0.00 0.00 27 1020.6
20260509190030 65 272 10.0 27.0 0.00 0.00 0.00 28 1020.9
20260509184533 64 288 10.0 18.0 0.00 0.00 0.00 29 1020.8
20260509183031 64 282 10.0 22.0 0.00 0.00 0.00 29 1021.2
20260509181530 64 258 12.0 22.0 0.00 0.00 0.00 29 1021.0
20260509180034 64 275 11.0 22.0 0.00 0.00 0.00 30 1021.4
20260509174531 62 226 9.0 15.0 0.00 0.00 0.00 33 1021.4
20260509173033 63 266 5.0 16.0 0.00 0.00 0.00 31 1021.5
20260509171537 63 250 8.0 15.0 0.00 0.00 0.00 34 1021.6
20260509170032 62 296 8.0 14.0 0.00 0.00 0.00 36 1021.6
20260509164529 62 294 8.0 14.0 0.00 0.00 0.00 35 1021.7
20260509163031 61 351 5.0 15.0 0.00 0.00 0.00 39 1021.6
20260509161536 59 237 5.0 12.0 0.00 0.00 0.00 38 1021.6
20260509160030 59 317 5.0 11.0 0.00 0.00 0.00 39 1021.6
20260509154532 58 304 4.0 8.0 0.00 0.00 0.00 41 1021.7
20260509153032 56 327 2.0 6.0 0.00 0.00 0.00 44 1021.8
20260509151531 55 261 2.0 7.0 0.00 0.00 0.00 45 1021.9
20260509150036 55 163 3.0 6.0 0.00 0.00 0.00 45 1021.9
20260509144533 52 121 2.0 4.0 0.00 0.00 0.00 52 1021.8
20260509143034 51 232 3.0 5.0 0.00 0.00 0.00 52 1021.8
20260509141533 52 217 2.0 4.0 0.00 0.00 0.00 49 1021.9
20260509140029 51 0 1.0 4.0 0.00 0.00 0.00 46 1021.7
20260509134532 50 200 1.0 3.0 0.00 0.00 0.00 49 1021.7
20260509133030 49 141 0.0 3.0 0.00 0.00 0.00 49 1021.9
20260509131545 46 69 3.0 6.0 0.00 0.00 0.00 53 1021.8
20260509130037 44 57 4.0 8.0 0.00 0.00 0.00 54 1021.5
20260509124529 42 69 4.0 8.0 0.00 0.00 0.00 56 1021.5
20260509123032 41 54 5.0 9.0 0.00 0.00 0.00 56 1021.0
20260509121530 42 69 5.0 8.0 0.00 0.00 0.00 54 1020.9
20260509120035 42 73 5.0 8.0 0.00 0.00 0.00 54 1020.8
20260509114536 42 65 5.0 8.0 0.00 0.00 0.00 55 1020.7
20260509113034 44 93 5.0 8.0 0.00 0.00 0.00 52 1020.4
20260509111530 43 109 6.0 9.0 0.00 0.00 0.00 53 1020.2
20260509110031 44 98 4.0 6.0 0.00 0.00 0.00 51 1020.4
20260509104528 44 78 3.0 7.0 0.00 0.00 0.00 53 1020.6
20260509103032 44 76 4.0 9.0 0.00 0.00 0.00 53 1020.5
20260509101536 44 84 4.0 8.0 0.00 0.00 0.00 53 1020.3
20260509100030 45 85 5.0 8.0 0.00 0.00 0.00 52 1020.3
20260509094532 44 61 4.0 8.0 0.00 0.00 0.00 54 1020.4
20260509093028 45 71 5.0 9.0 0.00 0.00 0.00 52 1020.2
20260509091533 46 64 4.0 8.0 0.00 0.00 0.00 51 1020.3